Regional Weather Roundup
Issued by NWS Grand Forks, ND

Home | Current Version | Previous Version | Graphics & Text | Print | Product List | Glossary On
Versions: 1 2 3 4 5 6 7 8 9 10 11 12 13 14 15 16 17 18 19 20 21 22 23 24 25 26 27 28 29 30 31 32 33 34 35 36 37 38 39 40 41 42 43 44 45 46 47 48 49 50
000
ASUS43 KFGF 281331
RWRFGF
PRAIRIE TO PINES  WEATHER ROUNDUP
NATIONAL WEATHER SERVICE EASTERN NORTH DAKOTA/GRAND FORKS ND
700 AM CST FRI NOV 28 2014

 **SATELLITE DATA USED TO AUGMENT SKY COVER AT AUTOMATED STATIONS**
 *****  WEATHER ACROSS EASTERN NORTH DAKOTA  *****

CITY           SKY/WX    TMP DP  RH WIND       PRES   REMARKS
GRAND FORKS    CLOUDY    12   7  80 SE6       30.00S WCI   3
GRAND FRKS AFB LGT SNOW  10   7  85 E7        29.97F FOG     WCI   0
GRAND FRKS NWS   N/A     12 N/A N/A E7          N/A  WCI   2
DEVILS LAKE    CLOUDY     9  -2  61 E13       29.86F WCI  -7
FARGO          CLOUDY    13   6  74 SE6       29.97F WCI   4
WAHPETON ARPT  MOSUNNY   10   3  72 SE6       29.96S WCI   1
$$

 ***** WEATHER ACROSS CENTRAL AND WESTERN NORTH DAKOTA  *****

CITY           SKY/WX    TMP DP  RH WIND       PRES   REMARKS
BISMARCK       CLOUDY    11   7  84 SE10      29.77F WCI  -3
MINOT          CLOUDY     8   3  80 E9        29.82S WCI  -5
JAMESTOWN      LGT SNOW   7   3  84 E12       29.84F FOG     WCI  -8
MINOT AFB      FLURRIES   8   5  88 E12       29.83S WCI  -7
GARRISON         N/A     11   8  88 E12       29.76F WCI  -3
WILLISTON      CLOUDY    17  13  84 E8        29.70F WCI   7
DICKINSON      CLOUDY    19  15  84 E7        29.63F WCI  10
HETTINGER      CLOUDY    30  26  85 SE3       29.66F
$$

 *****  OTHER AIRPORT OBSERVATIONS IN OUR AREA  *****

CITY           SKY/WX    TMP DP  RH WIND       PRES   REMARKS
WALHALLA         N/A      9   9 100 E5        29.99F WCI   0
GRAFTON AIRPOR LGT SNOW  10   7  85 E8        30.00F WCI  -1
VALLEY CITY AR FLURRIES   9   5  85 SE9       29.90S WCI  -5
CANDO          LGT SNOW   9   5  85 E10       29.89F WCI  -6
CAVALIER APRT  LGT SNOW  10   7  85 E5        30.00F WCI   2
GWINNER        PTSUNNY   10   3  72 SE14      29.89F WCI  -5
SHEYENNE NWR     N/A      7   1  78 SE7       29.95  WCI  -5
ROLLA          CLOUDY     7   3  85 E10       29.86F WCI  -8
 ***** THE ABOVE OBSERVATIONS ARE NON NWS ARE NOT QUALITY
       CONTROLLED AND MAY MIS-REPORT RAIN FOR SNOW...
$$

  *****  WEATHER ACROSS NORTHERN MINNESOTA  *****

CITY           SKY/WX    TMP DP  RH WIND       PRES   REMARKS
FLAG ISLAND    PTCLDY     1  -2  85 E3        30.02F
WARROAD        CLOUDY     7   1  78 SE6       30.02F WCI  -3
ROSEAU         CLOUDY     9   3  78 E6        30.02S WCI  -1
HALLOCK        LGT SNOW  10   7  85 E3        30.01F
THF RVR FALLS  CLOUDY    10   5  79 E8        29.98S WCI  -1
BAUDETTE       MOCLDY     6  -1  73 E6        30.02S WCI  -4
WASKISH        FLURRIES   9   5  85 CALM      30.01F
CROOKSTON      CLOUDY    12   7  79 E3        30.01S
STEPHEN NDAWN    N/A     10   7  85 SE8         N/A  WCI  -1
GREENBUSH NDAW   N/A     10   7  85 E7          N/A  WCI   0
$$
  *****  WEATHER ACROSS CENTRAL AND WEST MINNESOTA  *****

CITY           SKY/WX    TMP DP  RH WIND       PRES   REMARKS
FOSSTON        CLOUDY     9   3  78 E6        29.97S WCI  -1
BEMIDJI        FLURRIES   8   4  82 SE6       29.96F WCI  -2
PARK RAPIDS    CLOUDY     8   4  83 SE7       29.95F WCI  -3
ELBOW LAKE     FAIR      10   5  79 SE10      29.92F WCI  -4
WADENA         FLURRIES   7   3  85 E9        29.94F WCI  -7
DETROIT LAKES  CLOUDY    10   5  79 SE8       29.94F WCI  -1
MOORHEAD       CLOUDY    12   9  85 SE7       29.96F WCI   2
FERGUS FALLS   PTCLDY     9   1  72 SE6       29.97F WCI  -1
MORRIS MN      PTCLDY     9   3  78 E12       29.93F WCI  -6
STAPLES        LGT SNOW   9   3  78 E3        29.98R
$$
  *****  WEATHER ELSEWHERE ACROSS MINNESOTA  *****

CITY           SKY/WX    TMP DP  RH WIND       PRES   REMARKS
DULUTH         LGT SNOW   8   4  83 SE8       30.02F WCI  -4
INTRNTL FALLS  PTCLDY     5  -1  76 E5        30.03F WCI  -4
ELY            FLURRIES   7   0  72 SE3       30.03F
CLOQUET        LGT SNOW   7   3  85 E5        30.03S WCI  -2
WHEATON        PTCLDY     7   3  85 E12       29.93F WCI  -9
BRAINERD       CLOUDY     8   4  83 SE7       29.98F FOG     WCI  -3
HIBBING        CLOUDY     8   1  73 SE6       30.03S WCI  -2
ALEXANDRIA     MOCLDY     9   4  80 SE9       29.95S WCI  -4
SAINT CLOUD    CLOUDY    11   5  77 E6        29.99F WCI   1
MINNEAPOLIS    CLOUDY    13   7  77 SE9       30.03F WCI   1
$$

  *****  WEATHER ACROSS SOUTH DAKOTA  *****

CITY           SKY/WX    TMP DP  RH WIND       PRES   REMARKS
SIOUX FALLS    CLOUDY    19  16  88 E5        29.82F WCI  12
BROOKINGS      NOT AVBL
WATERTOWN      CLOUDY    15  12  88 SE7       29.80F WCI   5
HURON          CLOUDY    20  16  84 SE5       29.80F WCI  13
SISSETON         N/A      5   2  87 S6        29.92F WCI  -6
ABERDEEN       CLOUDY    15   9  76 NE7       29.85S WCI   5
MITCHELL       CLOUDY    22  18  85 SE6       29.80F WCI  14
PIERRE         CLOUDY    18  14  84 NE7       29.74S WCI   9
MOBRIDGE       CLOUDY    17  12  80 E10       29.73F WCI   5
RAPID CITY     MOCLDY    43  28  55 N3        29.70R
$$

  *****  SOME WEATHER IN NEARBY STATES *****

CITY           SKY/WX    TMP DP  RH WIND       PRES   REMARKS
GLASGOW MT     CLOUDY    19  16  88 E17       29.59F FOG     WCI   4
GREAT FALLS MT PTCLDY    49  34  56 SW22G31   29.53F
CHEYENNE WY    MOCLDY    48  14  25 W15       29.95F
SCOTTSBLUFF NE PTCLDY    50  26  39 W15       29.82F
OMAHA NE       PTCLDY    28  23  81 S12       29.92F WCI  18
DES MOINES IA  PTCLDY    20  14  77 SE10      30.00F WCI   9
DAVENPORT IA   PTCLDY    18   8  65 SE16      30.17F WCI   3
CHICAGO IL     FLURRIES  20  13  74 S10       30.28F WCI   9
EAU CLAIRE WI  CLOUDY    11   6  81 E8        30.07F WCI  -1
LA CROSSE WI   CLOUDY    17  10  74 SE10      30.10F WCI   5
$$

  *****  SOME NATIONAL WEATHER *****

CITY           SKY/WX    TMP DP  RH WIND       PRES   REMARKS
LA GUARDIA NY  PTCLDY    32  23  69 NW14      30.14R WCI  22
RALEIGH NC     CLEAR     28  22  78 CALM      30.35R
ATLANTA GA     CLEAR     29  21  72 NW8       30.37S WCI  21
NEW ORLEANS LA CLEAR     43  34  70 E8        30.43S
OKLAHOMA CITY  PTCLDY    39  28  64 S9        30.11S
ALBUQUERQUE NM MOCLDY    32  19  58 E3        30.28S
SALT LAKE CITY CLOUDY    44  24  45 SE8       30.02F
LOS ANGELES CA CLEAR     57  37  47 CALM      29.98S
BOISE ID       CLOUDY    40  39  97 N5        29.87F
SEATTLE WA     CLOUDY    55  49  80 S15       29.59F
$$

*** WEATHER ACROSS MANITOBA...SASKATCHEWAN AND ONTARIO ***
                ***ONTARIO***

CITY           SKY/WX    TMP DP  RH WIND       PRES   REMARKS
GERALDTON      PTCLDY   -20 -26  76 CALM      30.08
THUNDER BAY    MOCLDY    -2  -6  84 SW5       30.17F WCI -12
SIOUX LOOKOUT  MOCLDY   -11 -15  84 VRB2      30.05F
TORONTO        PTCLDY    21  14  73 W8        30.25R WCI  12
BIG TROUT LK   CLEAR    -13 -18  77 W6        30.04F WCI -27
PICKLE LAKE    FLURRIES  -8 -13  77 W5        30.04F WCI -19
DRYDEN         CLOUDY    -4  -8  84 S6        30.03F WCI -16
KENORA         MOCLDY    -2  -8  78 E6        30.02F WCI -14
$$
                *** MANITOBA***

CITY           SKY/WX    TMP DP  RH WIND       PRES   REMARKS
BRANDON        LGT SNOW   7   3  85 E20       29.95F DRFTSNOWWCI -13
DAUPHIN        LGT SNOW   5   1  85 NE10      30.05F WCI -10
ISLAND LAKE    CLEAR    -18 -26  69 NW2       30.11F
PILOT MOUND      N/A      5   3  92 E8          N/A  WCI  -8
THE PAS        MOCLDY   -11 -17  77 E3        30.14F
THOMPSON       CLEAR    -26 -33  68 CALM      30.14F
WINNIPEG       CLOUDY     5  -2  72 E6        30.06F WCI  -6
LYNN LAKE      CLEAR    -22 -27  76 W7        30.10F WCI -39
CHURCHILL      CRYSTALS -13 -18  77 W15       30.03F BLWGSNOWWCI -36
GILLAM         CLEAR    -20 -26  76 W10       30.12S WCI -41
$$
                ***SASKATCHEWAN***

CITY           SKY/WX    TMP DP  RH WIND       PRES   REMARKS
ESTEVAN        LGT SNOW   9   3  78 E17       29.77F DRFTSNOWWCI -10
KINDERSLEY     LGT SNOW   5   1  85 NE21G29   29.59F DRFTSNOWWCI -16
LLOYDMINSTER   LGT SNOW  -4  -8  84 NE14      29.75F VSB 1   WCI -24
PRINCE ALBERT  LGT SNOW  -2  -8  78 E16       29.95F VSB 1   WCI -23
REGINA         LGT SNOW  12   9  85 SE15G21   29.73  DRFTSNOWWCI  -4
YORKTON        FLURRIES   5   1  85 E16       29.88F WCI -14
N. BATTLEFORD  LGT SNOW   1  -2  85 E21G26    29.77F WCI -20
LA RONGE       CLEAR     -9 -15  77 NE7       30.09F WCI -24
SASKATOON      LGT SNOW   3   0  85 E20       29.79F DRFTSNOWWCI -18
SWIFT CURRENT  FOG       12  10  92 SE10      29.52F VSB 1   WCI  -1
$$
NOTE: THESE ARE AUTOMATED STATIONS WITH LIMITED QUALITY CONTROL
      "FAIR" INDICATES FEW OR NO CLOUDS BELOW 12,000 FEET WITH NO
      SIGNIFICANT WEATHER AND/OR OBSTRUCTIONS TO VISIBILITY.
      SKY/WX - SKY CONDITION AND SIGNIFICANT WEATHER.
      TMP - AIR TEMPERATURE.    DP   - DEWPOINT TEMPERATURE.
      RH  - RELATIVE HUMIDITY.  PRES - PRESSURE.
      HX  - HEAT INDEX.         WCI  - WIND CHILL INDEX.
$



USA.gov is the U.S. government's official web portal to all federal, state and local government web resources and services.